Regional Weather Roundup
Issued by NWS Northern Indiana

Home | Current Version | Previous Version | Graphics & Text | Print | Product List | Glossary On
Versions: 1 2 3 4 5 6 7 8 9 10 11 12 13 14 15 16 17 18 19 20 21 22 23 24 25 26 27 28 29 30 31 32 33 34 35 36 37 38 39 40 41 42 43 44 45 46 47 48 49 50
000
ASUS43 KIWX 230100
RWRIWX

KIWX WEATHER ROUNDUP
NATIONAL WEATHER SERVICE NORTHERN INDIANA
900 PM EDT FRI AUG 22 2014

NOTE: "FAIR" INDICATES FEW OR NO CLOUDS BELOW 12,000 FEET WITH NO
SIGNIFICANT WEATHER AND/OR OBSTRUCTIONS TO VISIBILITY.

* THESE STATIONS ARE NOT UNDER NWS QUALITY CONTROL. THEY ALSO MAY NOT
  REPORT WEATHER SUCH AS PRECIPITATION OR FOG.

INZ001>027-230200-
NORTHERN INDIANA

CITY           SKY/WX    TMP DP  RH WIND       PRES   REMARKS
GARY*          CLOUDY    81  73  78 CALM      29.96R
VALPARAISO     PTCLDY    76  72  87 W3        29.98R
KNOX*          MOCLDY    77  71  84 CALM      29.96S
SOUTH BEND     CLOUDY    81  74  79 W3        29.97R
ELKHART*       CLOUDY    81  73  78 CALM      29.97R
GOSHEN         LGT RAIN  80  74  81 NW5       29.97R
MONTICELLO*    CLOUDY    78  75  90 SW3       29.96S
WARSAW*        PTCLDY    77  73  88 W3        29.97S
ANGOLA*        CLOUDY    79  72  78 CALM      29.98R
FORT WAYNE     MOCLDY    75  72  90 W6        29.98R
PERU/GRISSOM   MOCLDY    78  78 100 SW2       29.98R

$$
INZ028>050-230200-
CENTRAL INDIANA

CITY           SKY/WX    TMP DP  RH WIND       PRES   REMARKS
LAFAYETTE      CLEAR     77  73  87 CALM      29.96F
KOKOMO*        PTCLDY    77  72  83 NW3       29.98R
MUNCIE*        CLOUDY    77  72  84 W3        29.98R
INDIANAPOLIS   MOCLDY    79  69  71 NW5       29.98R

$$
MIZ043>046-050>051-056>058-064>065-071>073-077>080-230200-
SOUTHWEST LOWER MICHIGAN

CITY           SKY/WX    TMP DP  RH WIND       PRES   REMARKS
BATTLE CREEK   CLOUDY    78  71  79 NE3       30.00R
BENTON HARBOR  MOCLDY    74  72  93 CALM      29.97R
COLDWATER*     CLOUDY    78  73  84 N3        29.99R
HILLSDALE*     CLOUDY    76  74  93 CALM      30.00R
HOLLAND        CLEAR     76  72  87 E3        29.98R
GRAND RAPIDS   PTCLDY    76  75  97 E6        29.99R
KALAMAZOO      CLOUDY    78  71  79 CALM      29.99R
STURGIS*       CLOUDY    77  73  88 CALM      29.98R
THREE RIVERS*  CLOUDY    79  73  83 NE3       29.98R

$$
OHZ001>008-015>018-024>025-230200-
NORTHWEST OHIO

CITY           SKY/WX    TMP DP  RH WIND       PRES   REMARKS
DEFIANCE       MOCLDY    77  73  87 CALM      29.97R
FINDLAY        PTCLDY    77  74  90 CALM      29.96R
TOLEDO EXPRESS CLEAR     74  71  91 CALM      29.96R
TOLEDO METCALF CLEAR     76  69  79 E3        29.97R
LIMA           CLOUDY    78  73  84 CALM      29.98R

$$
&&


USA.gov is the U.S. government's official web portal to all federal, state and local government web resources and services.